TimeCDT,TemperatureF,Dew PointF,Humidity,Sea Level PressureIn,VisibilityMPH,Wind Direction,Wind SpeedMPH,Gust SpeedMPH,PrecipitationIn,Events,Conditions,WindDirDegrees,DateUTC
12:14 AM,28.4,24.8,86,29.85,10.0,Calm,Calm,-,N/A,,Overcast,0,2013-04-08 05:14:00
12:33 AM,28.4,24.8,86,29.85,10.0,North,3.5,-,N/A,,Overcast,10,2013-04-08 05:33:00
12:54 AM,28.4,24.8,86,29.85,10.0,North,6.9,-,N/A,,Overcast,10,2013-04-08 05:54:00
1:14 AM,28.4,24.8,86,29.85,10.0,North,5.8,-,N/A,,Overcast,10,2013-04-08 06:14:00
1:33 AM,28.4,26.6,93,29.86,10.0,North,6.9,-,N/A,,Overcast,360,2013-04-08 06:33:00
1:54 AM,30.2,26.6,86,29.86,10.0,North,6.9,-,N/A,,Overcast,360,2013-04-08 06:54:00
2:14 AM,30.2,26.6,86,29.87,10.0,North,5.8,-,N/A,,Overcast,10,2013-04-08 07:14:00
2:34 AM,30.2,26.6,86,29.87,10.0,North,8.1,-,N/A,,Overcast,10,2013-04-08 07:34:00
2:54 AM,30.2,26.6,86,29.86,10.0,North,10.4,-,N/A,,Overcast,360,2013-04-08 07:54:00
3:14 AM,30.2,26.6,86,29.86,10.0,North,9.2,-,N/A,,Overcast,10,2013-04-08 08:14:00
3:33 AM,28.4,24.8,86,29.87,10.0,North,5.8,-,N/A,,Overcast,360,2013-04-08 08:33:00
3:54 AM,28.4,24.8,86,29.86,10.0,North,9.2,-,N/A,,Overcast,10,2013-04-08 08:54:00
4:14 AM,28.4,24.8,86,29.87,10.0,North,9.2,-,N/A,,Overcast,10,2013-04-08 09:14:00
4:34 AM,28.4,24.8,86,29.87,10.0,North,10.4,-,N/A,,Overcast,360,2013-04-08 09:34:00
4:54 AM,28.4,24.8,86,29.88,10.0,NNW,8.1,-,N/A,,Overcast,340,2013-04-08 09:54:00
5:14 AM,28.4,24.8,86,29.87,10.0,North,10.4,-,N/A,,Overcast,350,2013-04-08 10:14:00
5:34 AM,28.4,24.8,86,29.88,10.0,North,11.5,-,N/A,,Overcast,360,2013-04-08 10:34:00
5:54 AM,28.4,24.8,86,29.88,10.0,North,12.7,-,N/A,,Overcast,350,2013-04-08 10:54:00
6:14 AM,28.4,24.8,86,29.89,10.0,North,9.2,-,N/A,,Overcast,360,2013-04-08 11:14:00
6:34 AM,26.6,24.8,93,29.89,10.0,North,8.1,-,N/A,,Overcast,10,2013-04-08 11:34:00
6:54 AM,28.4,24.8,86,29.90,10.0,North,9.2,-,N/A,,Overcast,360,2013-04-08 11:54:00
7:14 AM,28.4,24.8,86,29.91,10.0,NNW,9.2,-,N/A,,Overcast,340,2013-04-08 12:14:00
7:34 AM,26.6,24.8,93,29.92,10.0,NNW,9.2,-,N/A,,Overcast,340,2013-04-08 12:34:00
7:54 AM,26.6,23.0,86,29.92,10.0,NNW,10.4,-,N/A,,Overcast,340,2013-04-08 12:54:00
8:14 AM,26.6,21.2,80,29.92,10.0,NNW,10.4,-,N/A,,Overcast,340,2013-04-08 13:14:00
8:34 AM,26.6,21.2,80,29.93,10.0,North,11.5,-,N/A,,Overcast,350,2013-04-08 13:34:00
8:54 AM,26.6,21.2,80,29.93,10.0,NNW,9.2,16.1,N/A,,Overcast,340,2013-04-08 13:54:00
9:14 AM,26.6,21.2,80,29.93,10.0,North,8.1,-,N/A,,Overcast,360,2013-04-08 14:14:00
9:34 AM,26.6,21.2,80,29.93,10.0,North,10.4,-,N/A,,Mostly Cloudy,350,2013-04-08 14:34:00
9:54 AM,28.4,21.2,74,29.93,10.0,NNW,8.1,-,N/A,,Overcast,330,2013-04-08 14:54:00
10:14 AM,28.4,21.2,74,29.93,10.0,NNW,9.2,-,N/A,,Overcast,340,2013-04-08 15:14:00
10:34 AM,28.4,21.2,74,29.93,10.0,North,9.2,-,N/A,,Overcast,350,2013-04-08 15:34:00
10:54 AM,30.2,21.2,69,29.93,10.0,North,10.4,-,N/A,,Overcast,360,2013-04-08 15:54:00
11:14 AM,30.2,21.2,69,29.94,10.0,North,9.2,-,N/A,,Overcast,360,2013-04-08 16:14:00
11:33 AM,32.0,21.2,64,29.94,10.0,North,12.7,-,N/A,,Overcast,10,2013-04-08 16:33:00
11:54 AM,32.0,21.2,64,29.95,10.0,NNE,11.5,16.1,N/A,,Overcast,20,2013-04-08 16:54:00
12:14 PM,32.0,21.2,64,29.95,10.0,NNE,11.5,-,N/A,,Overcast,20,2013-04-08 17:14:00
12:34 PM,33.8,21.2,60,29.95,10.0,North,9.2,-,N/A,,Scattered Clouds,10,2013-04-08 17:34:00
12:54 PM,33.8,21.2,60,29.96,10.0,NE,8.1,-,N/A,,Clear,50,2013-04-08 17:54:00
1:14 PM,35.6,21.2,56,29.97,10.0,NE,5.8,-,N/A,,Clear,40,2013-04-08 18:14:00
1:33 PM,35.6,21.2,56,29.98,10.0,ENE,5.8,-,N/A,,Clear,60,2013-04-08 18:33:00
1:54 PM,35.6,21.2,56,29.99,10.0,ENE,4.6,-,N/A,,Mostly Cloudy,60,2013-04-08 18:54:00
2:14 PM,35.6,21.2,56,29.99,10.0,East,4.6,-,N/A,,Mostly Cloudy,100,2013-04-08 19:14:00
2:34 PM,35.6,23.0,60,30.00,10.0,ESE,4.6,-,N/A,,Mostly Cloudy,110,2013-04-08 19:34:00
2:54 PM,35.6,24.8,65,30.00,10.0,Calm,Calm,-,N/A,,Scattered Clouds,0,2013-04-08 19:54:00
3:13 PM,35.6,21.2,56,30.01,10.0,NW,4.6,-,N/A,,Clear,310,2013-04-08 20:13:00
3:34 PM,35.6,21.2,56,30.01,10.0,NW,15.0,-,N/A,,Clear,310,2013-04-08 20:34:00
3:54 PM,35.6,19.4,52,30.02,10.0,WNW,16.1,20.7,N/A,,Clear,300,2013-04-08 20:54:00
4:14 PM,35.6,19.4,52,30.03,10.0,NW,15.0,18.4,N/A,,Clear,310,2013-04-08 21:14:00
4:34 PM,35.6,19.4,52,30.03,10.0,WNW,12.7,20.7,N/A,,Clear,300,2013-04-08 21:34:00
4:54 PM,35.6,19.4,52,30.03,10.0,WNW,11.5,-,N/A,,Clear,300,2013-04-08 21:54:00
5:14 PM,33.8,17.6,52,30.04,10.0,WNW,12.7,17.3,N/A,,Clear,300,2013-04-08 22:14:00
5:34 PM,33.8,17.6,52,30.05,10.0,WNW,12.7,-,N/A,,Clear,300,2013-04-08 22:34:00
5:54 PM,30.2,17.6,60,30.07,10.0,NW,19.6,-,N/A,,Clear,310,2013-04-08 22:54:00
6:14 PM,30.2,17.6,60,30.08,10.0,NW,16.1,21.9,N/A,,Clear,310,2013-04-08 23:14:00
6:34 PM,28.4,17.6,64,30.10,10.0,WNW,18.4,24.2,N/A,,Clear,300,2013-04-08 23:34:00
6:53 PM,28.4,17.6,64,30.09,10.0,NW,16.1,21.9,N/A,,Clear,310,2013-04-08 23:53:00
7:14 PM,26.6,15.8,64,30.10,10.0,WNW,13.8,21.9,N/A,,Clear,300,2013-04-09 00:14:00
7:34 PM,26.6,15.8,64,30.11,10.0,WNW,16.1,24.2,N/A,,Clear,300,2013-04-09 00:34:00
7:54 PM,24.8,15.8,69,30.13,10.0,WNW,11.5,20.7,N/A,,Clear,300,2013-04-09 00:54:00
8:13 PM,24.8,15.8,69,30.14,10.0,NW,16.1,20.7,N/A,,Clear,310,2013-04-09 01:13:00
8:34 PM,23.0,14.0,68,30.14,10.0,WNW,16.1,23.0,N/A,,Clear,300,2013-04-09 01:34:00
8:54 PM,21.2,12.2,68,30.15,10.0,NW,16.1,20.7,N/A,,Clear,310,2013-04-09 01:54:00
9:13 PM,21.2,12.2,68,30.17,10.0,WNW,16.1,-,N/A,,Clear,300,2013-04-09 02:13:00
9:34 PM,21.2,12.2,68,30.18,10.0,WNW,12.7,-,N/A,,Clear,300,2013-04-09 02:34:00
9:54 PM,21.2,12.2,68,30.18,10.0,NW,15.0,21.9,N/A,,Clear,310,2013-04-09 02:54:00
10:14 PM,19.4,10.4,68,30.18,10.0,NW,16.1,24.2,N/A,,Clear,310,2013-04-09 03:14:00
10:34 PM,19.4,10.4,68,30.19,10.0,NW,16.1,21.9,N/A,,Clear,310,2013-04-09 03:34:00
10:54 PM,17.6,10.4,73,30.20,10.0,NW,11.5,-,N/A,,Clear,310,2013-04-09 03:54:00
11:14 PM,17.6,10.4,73,30.21,10.0,NW,12.7,23.0,N/A,,Clear,310,2013-04-09 04:14:00
11:34 PM,17.6,8.6,68,30.21,10.0,NW,15.0,-,N/A,,Clear,320,2013-04-09 04:34:00
11:53 PM,17.6,8.6,68,30.22,10.0,NW,12.7,-,N/A,,Clear,310,2013-04-09 04:53:00